Selinsgrove, PA

8:45 PM EST on November 15, 2019 (GMT -0500)
Penn Valley

Weather History for KSEG - June, 2019

Change the Weather History Date:

Saturday, June 1, 2019

  Actual Average (KIPT) Record (KIPT)
Temperature  
Mean Temperature 68 °F -  
Max Temperature 81 °F 71 °F 96 °F (1925)
Min Temperature 54 °F 49 °F 36 °F (1907)
Cooling Degree Days 2    
Growing Degree Days 18 (Base 50)    
Moisture  
Dew Point 59 °F    
Average Humidity 76    
Maximum Humidity 97    
Minimum Humidity 49    
Precipitation  
Precipitation 0.03 in - - ()
Sea Level Pressure  
Sea Level Pressure 29.82 in    
Wind  
Wind Speed 3 mph (SSE)    
Max Wind Speed 8 mph    
Max Gust Speed -    
Visibility 9 miles    
Events Rain , Thunderstorm    
Averages and records for this station are not official NWS values.
T = Trace of Precipitation, MM = Missing Value Source: NWS Daily Summary

Daily Weather History Graph

Daily Weather History Graph

Search for Another Location

Airport or City:

Astronomy

Jun. 01, 2019 Rise Set
Actual Time 5:38 AM EDT 8:32 PM EDT
Civil Twilight 5:05 AM EDT 9:05 PM EDT
Nautical Twilight 4:24 AM EDT 9:46 PM EDT
Astronomical Twilight 3:36 AM EDT 10:34 PM EDT
Moon 4:43 AM EDT (6/1) 6:42 PM EDT (6/1)
Length of Visible Light 15h 59m
Length of Day
14h 54m
Waning Crescent, 4% of the Moon is Illuminated
Jun 1
Waning Crescent
Jun 3
New
Jun 10
First Quarter
Jun 17
Full
Jun 25
Last Quarter

Hourly Weather History & Observations

Time (EDT) Temp. Heat Index Dew Point Humidity Pressure Visibility Wind Dir Wind Speed Gust Speed Precip Events Conditions
12:53 AM 57.0 °F - 55.0 °F 93% 29.83 in 9.0 mi NNW 3.5 mph - N/A   Clear
1:53 AM 57.0 °F - 55.0 °F 93% 29.84 in 6.0 mi Calm Calm - N/A   Clear
2:53 AM 55.9 °F - 54.0 °F 93% 29.84 in 7.0 mi North 5.8 mph - N/A   Clear
3:53 AM 55.9 °F - 54.0 °F 93% 29.84 in 8.0 mi NW 3.5 mph - N/A   Clear
4:53 AM 55.0 °F - 53.1 °F 93% 29.85 in 8.0 mi NW 3.5 mph - N/A   Clear
5:53 AM 54.0 °F - 53.1 °F 97% 29.86 in 6.0 mi Calm Calm - N/A   Clear
6:53 AM 55.9 °F - 54.0 °F 93% 29.88 in 7.0 mi Calm Calm - N/A   Clear
7:53 AM 59.0 °F - 57.0 °F 93% 29.87 in 8.0 mi Calm Calm - N/A   Clear
8:53 AM 63.0 °F - 57.9 °F 84% 29.88 in 10.0 mi Calm Calm - N/A   Clear
9:53 AM 68.0 °F - 57.9 °F 70% 29.87 in 10.0 mi Calm Calm - N/A   Clear
10:53 AM 71.1 °F - 55.9 °F 59% 29.88 in 10.0 mi Calm Calm - N/A   Clear
11:53 AM 73.9 °F - 60.1 °F 62% 29.87 in 10.0 mi SE 8.1 mph - N/A   Clear
12:53 PM 75.9 °F - 61.0 °F 60% 29.83 in 10.0 mi South 6.9 mph - N/A   Clear
1:53 PM 79.0 °F - 61.0 °F 54% 29.80 in 10.0 mi Calm Calm - N/A   Clear
2:53 PM 80.1 °F 81.5 °F 63.0 °F 56% 29.78 in 10.0 mi SSE 5.8 mph - N/A   Partly Cloudy
3:53 PM 80.1 °F 81.1 °F 61.0 °F 52% 29.76 in 10.0 mi Variable 4.6 mph - N/A   Clear
4:53 PM 81.0 °F 81.6 °F 60.1 °F 49% 29.75 in 10.0 mi SSW 3.5 mph - N/A   Scattered Clouds
5:53 PM 80.1 °F 80.9 °F 60.1 °F 50% 29.74 in 10.0 mi South 6.9 mph - N/A   Scattered Clouds
6:04 PM 79.0 °F - 61.0 °F 54% 29.74 in 10.0 mi South 5.8 mph - N/A Thunderstorm Scattered Clouds
6:17 PM 78.1 °F - 61.0 °F 56% 29.74 in 10.0 mi South 4.6 mph - N/A Thunderstorm Thunderstorm
6:53 PM 78.1 °F - 60.1 °F 54% 29.75 in 10.0 mi Variable 4.6 mph - N/A Thunderstorm Thunderstorm
7:07 PM 78.1 °F - 61.0 °F 56% 29.76 in 10.0 mi Calm Calm - N/A Thunderstorm Overcast
7:43 PM 71.1 °F - 63.0 °F 75% 29.75 in 10.0 mi East 6.9 mph - 0.00 in Rain Light Rain
7:48 PM 71.6 °F - 62.6 °F 73% 29.75 in 10.0 mi Variable 3.5 mph - 0.00 in Rain , Thunderstorm Light Thunderstorms and Rain
7:53 PM 71.1 °F - 64.0 °F 78% 29.78 in 6.0 mi North - - 0.03 in Rain , Thunderstorm Light Thunderstorms and Rain
8:10 PM 62.1 °F - 57.9 °F 86% 29.82 in - North 3.5 mph - N/A Thunderstorm Thunderstorm
8:53 PM 63.0 °F - 61.0 °F 93% 29.81 in 10.0 mi East 4.6 mph - N/A Thunderstorm Thunderstorm
9:03 PM 63.0 °F - 61.0 °F 93% 29.83 in 10.0 mi East 3.5 mph - N/A Thunderstorm Overcast
9:10 PM 64.0 °F - 61.0 °F 90% 29.83 in 10.0 mi ENE 5.8 mph - N/A   Overcast
9:53 PM 64.0 °F - 62.1 °F 93% 29.88 in 9.0 mi Calm Calm - N/A   Overcast
10:53 PM 63.0 °F - 61.0 °F 93% 29.86 in 10.0 mi Calm Calm - N/A   Scattered Clouds
11:53 PM 62.1 °F - 59.0 °F 90% 29.83 in 10.0 mi SW 3.5 mph - N/A   Mostly Cloudy